This demonstration page uses our WeatherBlox Daily Observations layout. Learn more.

Left ArrowRight Arrow

39.51506, -84.39828

Hourly Observations for January 17, 2015

Temp ( °F °C ) Dew Point ( °F °C ) Humidity (%) Winds ( mph kmh ) Pressure ( in mb ) Visibility ( mi km ) Precip ( " mm )
12:15 am 00:15 Clear with Mist and Fog 29 -1.5 26 -3.4 87 87 Calm 30.24 1024 4 6 0.00 0.00
12:35 am 00:35 Clear with Mist and Fog 29 -1.7 26 -3.5 88 88 Calm 30.24 1024 3 5 0.00 0.00
12:55 am 00:55 Clear with Mist and Fog 27 -2.8 24 -4.7 87 87 Calm 30.21 1023 3 5 0.00 0.00
1:15 am 01:15 Clear with Mist and Fog 28 -2.4 24 -4.2 88 88 Calm 30.21 1023 3 4 0.00 0.00
1:35 am 01:35 Clear with Mist and Fog 26 -3.1 23 -5 87 87 Calm 30.21 1023 3 5 0.00 0.00
1:55 am 01:55 Clear with Mist and Fog 24 -4.2 21 -6 87 87 Calm 30.21 1023 3 5 0.00 0.00
2:15 am 02:15 Clear with Mist and Fog 27 -2.9 24 -4.7 88 88 Calm 30.21 1023 3 5 0.00 0.00
2:35 am 02:35 Clear with Mist and Fog 27 -2.8 24 -4.5 88 88 Calm 30.21 1023 3 4 0.00 0.00
2:55 am 02:55 Clear with Mist and Fog 27 -2.8 24 -4.5 88 88 Calm 30.21 1023 3 4 0.00 0.00
3:15 am 03:15 Clear with Mist and Fog 27 -2.8 24 -4.5 88 88 Calm 30.21 1023 2 3 0.00 0.00
3:35 am 03:35 Mostly Cloudy with Mist and Fog 26 -3.3 23 -5.1 88 88 Calm 30.18 1022 2 3 0.00 0.00
3:55 am 03:55 Mostly Cloudy with Mist and Fog 24 -4.2 21 -6 87 87 Calm 30.18 1022 2 3 0.00 0.00
4:15 am 04:15 Mostly Cloudy with Mist and Fog 25 -4.1 22 -5.8 88 88 Calm 30.18 1022 2 3 0.00 0.00
4:35 am 04:35 Clear with Mist and Fog 26 -3.6 22 -5.3 88 88 Calm 30.18 1022 2 3 0.00 0.00
4:55 am 04:55 Clear with Mist and Fog 27 -2.8 24 -4.5 88 88 Calm 30.15 1021 3 5 0.00 0.00
5:15 am 05:15 Clear with Mist and Fog 27 -2.6 24 -4.3 88 88 Calm 30.15 1021 3 5 0.00 0.00
5:35 am 05:35 Clear with Mist and Fog 29 -1.6 26 -3.2 89 89 Calm 30.15 1021 3 4 0.00 0.00
5:55 am 05:55 Clear with Mist and Fog 27 -2.8 24 -4.5 88 88 Calm 30.15 1021 3 5 0.00 0.00
6:15 am 06:15 Clear with Mist and Fog 25 -3.7 22 -5.4 88 88 Calm 30.15 1021 3 5 0.00 0.00
6:35 am 06:35 Clear with Mist and Fog 25 -4.1 21 -5.9 87 87 Calm 30.15 1021 2 3 0.00 0.00
6:55 am 06:55 Clear with Mist and Fog 24 -4.7 20 -6.5 87 87 Calm 30.15 1021 2 3 0.00 0.00
7:15 am 07:15 Clear with Mist and Fog 25 -3.9 22 -5.6 88 88 Calm 30.15 1021 2 3 0.00 0.00
7:35 am 07:35 Clear with Mist and Fog 24 -4.2 21 -6 87 87 Calm 30.12 1020 2 3 0.00 0.00
7:55 am 07:55 Clear with Mist and Fog 24 -4.5 21 -6.3 87 87 Calm 30.12 1020 3 4 0.00 0.00
8:15 am 08:15 Sunny with Mist and Fog 23 -4.9 20 -6.7 87 87 Calm 30.12 1020 2 3 0.00 0.00
8:35 am 08:35 Sunny with Mist and Fog 26 -3.5 23 -5.2 88 88 Calm 30.12 1020 3 4 0.00 0.00
8:55 am 08:55 Sunny with Mist and Fog 27 -2.7 24 -4.5 88 88 Calm 30.12 1020 3 4 0.00 0.00
9:15 am 09:15 Sunny with Mist and Fog 29 -1.5 26 -3.2 88 88 Calm 30.12 1020 3 4 0.00 0.00
9:35 am 09:35 Sunny with Mist and Fog 34 1 31 -0.5 90 90 SW 5 7 30.09 1019 4 6 0.00 0.00
9:55 am 09:55 Sunny 34 1.2 31 -0.3 90 90 SSW 8 13 30.09 1019 7 11 0.00 0.00
10:15 am 10:15 Sunny 37 2.8 32 0 82 82 SSW 9 15 30.09 1019 10 16 0.00 0.00
10:35 am 10:35 Sunny 40 4.2 31 -0.6 71 71 SSW 9 15 30.09 1019 10 16 0.00 0.00
10:55 am 10:55 Sunny 42 5.5 30 -0.9 64 64 SSW 14 22 30.06 1018 10 16 0.00 0.00
11:15 am 11:15 Sunny 42 5.6 30 -1 63 63 SSW 14 22 30.03 1017 10 16 0.00 0.00
11:35 am 11:35 Sunny 44 6.8 30 -0.9 58 58 SSW 15 24 30.03 1017 10 16 0.00 0.00
11:55 am 11:55 Sunny 47 8.2 32 -0.1 56 56 SSW 10 17 30.03 1017 10 16 0.00 0.00
12:15 pm 12:15 Sunny 49 9.6 32 0.1 52 52 SSW 9 15 30.00 1016 10 16 0.00 0.00
12:35 pm 12:35 Sunny 49 9.6 29 -1.5 46 46 SSW 18 30 29.97 1015 10 16 0.00 0.00
12:55 pm 12:55 Sunny 51 10.5 30 -0.9 45 45 SW 18 30 29.97 1015 10 16 0.00 0.00
1:15 pm 13:15 Sunny 51 10.6 30 -1.1 44 44 SW 24 39 29.97 1015 10 16 0.00 0.00
1:35 pm 13:35 Sunny 52 11 29 -1.5 42 42 SSW 15 24 29.94 1014 10 16 0.00 0.00
1:55 pm 13:55 Sunny 54 12.4 31 -0.6 41 41 SSW 17 28 29.94 1014 10 16 0.00 0.00
2:15 pm 14:15 Sunny 55 12.5 30 -1 40 40 SW 18 30 29.94 1014 10 16 0.00 0.00
2:35 pm 14:35 Sunny 55 12.5 30 -1.3 39 39 SSW 20 31 29.91 1013 10 16 0.00 0.00
2:55 pm 14:55 Sunny 55 12.5 28 -2.1 36 36 SSW 16 26 29.88 1012 10 16 0.00 0.00
3:15 pm 15:15 Sunny 55 12.5 28 -2.3 36 36 SSW 16 26 29.88 1012 10 16 0.00 0.00
3:35 pm 15:35 Sunny 55 12.5 27 -2.8 35 35 SSW 18 30 29.88 1012 10 16 0.00 0.00
3:55 pm 15:55 Sunny 55 12.5 28 -2.5 35 35 SSW 18 30 29.88 1012 10 16 0.00 0.00
4:15 pm 16:15 Sunny 55 12.5 29 -1.8 37 37 SSW 17 28 29.88 1012 10 16 0.00 0.00
4:35 pm 16:35 Sunny 52 11 27 -2.7 39 39 SSW 15 24 29.88 1012 10 16 0.00 0.00
4:55 pm 16:55 Sunny 53 11.9 28 -2.5 37 37 SSW 13 20 29.85 1011 10 16 0.00 0.00
5:15 pm 17:15 Sunny 51 10.4 26 -3.2 39 39 S 14 22 29.85 1011 10 16 0.00 0.00
5:35 pm 17:35 Sunny 49 9.7 26 -3.1 41 41 SSW 15 24 29.85 1011 10 16 0.00 0.00
5:55 pm 17:55 Clear 49 9.6 27 -2.7 42 42 SSW 12 19 29.85 1011 10 16 0.00 0.00
6:15 pm 18:15 Clear 49 9.6 28 -2.4 43 43 SSW 12 19 29.85 1011 10 16 0.00 0.00
6:35 pm 18:35 Clear 49 9.6 27 -2.7 42 42 SSW 13 20 29.85 1011 10 16 0.00 0.00
6:55 pm 18:55 Clear 49 9.6 27 -2.8 42 42 SSW 12 19 29.85 1011 10 16 0.00 0.00
7:15 pm 19:15 Clear 49 9.6 28 -2 45 45 SSW 12 19 29.85 1011 10 16 0.00 0.00
7:35 pm 19:35 Clear 49 9.6 28 -2 45 45 SSW 13 20 29.85 1011 10 16 0.00 0.00
7:55 pm 19:55 Clear 49 9.6 28 -2.5 43 43 SSW 13 20 29.85 1011 10 16 0.00 0.00
8:15 pm 20:15 Clear 49 9.6 28 -2.5 43 43 SSW 12 19 29.85 1011 10 16 0.00 0.00
8:35 pm 20:35 Clear 49 9.6 27 -2.6 43 43 SSW 12 19 29.85 1011 10 16 0.00 0.00
8:55 pm 20:55 Clear 49 9.6 27 -2.6 43 43 SSW 12 19 29.85 1011 10 16 0.00 0.00
9:15 pm 21:15 Clear 49 9.6 27 -2.9 42 42 SSW 12 19 29.85 1011 10 16 0.00 0.00
9:35 pm 21:35 Partly Cloudy 49 9.6 27 -3 41 41 SSW 15 24 29.85 1011 10 16 0.00 0.00
9:55 pm 21:55 Mostly Cloudy 49 9.6 26 -3.1 41 41 SSW 13 20 29.85 1011 10 16 0.00 0.00
10:15 pm 22:15 Cloudy 49 9.6 26 -3.2 41 41 SW 16 26 29.85 1011 10 16 0.00 0.00
10:35 pm 22:35 Cloudy 49 9.6 26 -3.5 40 40 SW 15 24 29.85 1011 10 16 0.00 0.00
10:55 pm 22:55 Cloudy 51 10.3 26 -3.5 38 38 SW 21 33 29.85 1011 10 16 0.00 0.00
11:15 pm 23:15 Cloudy 51 10.3 26 -3.4 38 38 SW 18 30 29.85 1011 10 16 0.00 0.00
11:35 pm 23:35 Cloudy 51 10.3 26 -3.4 38 38 SW 18 30 29.83 1010 10 16 0.00 0.00
11:55 pm 23:55 Cloudy 49 9.6 26 -3.6 40 40 SW 15 24 29.83 1010 10 16 0.00 0.00

Powered by AerisWeather